Regional Weather Roundup
Issued by NWS

Home | Current Version | Previous Version | Text Only | Print | Product List | Glossary On
Versions: 1 2 3 4 5 6 7 8 9 10 11 12 13 14 15 16 17 18 19 20 21 22 23 24 25 26 27 28 29 30 31 32 33 34 35 36 37 38 39 40 41 42 43 44 45 46 47 48 49 50
000
ASUS43 KIND 041409
RWRIN

WEATHER ROUNDUP FOR INDIANA
NATIONAL WEATHER SERVICE INDIANAPOLIS IN
1000 AM EDT MON MAY 04 2015

NOTE: "FAIR" INDICATES FEW OR NO CLOUDS BELOW 12,000 FEET WITH NO
SIGNIFICANT WEATHER AND/OR OBSTRUCTIONS TO VISIBILITY.

* - STATION DOES NOT REPORT WEATHER SUCH AS PRECIPITATION OR FOG.

+ - STATION NOT QUALITY CONTROLLED BY THE NATIONAL WEATHER SERVICE.
    USE DATA WITH CAUTION...ESPECIALLY DEWPOINT AND RELATIVE
    HUMIDITY OBSERVATIONS.

INZ001>003-010>013-019-020-041500-
NORTHWEST INDIANA

CITY           SKY/WX    TMP DP  RH WIND       PRES   REMARKS
GARY /AIRPORT/ CLOUDY    64 N/A N/A SW14      30.07R
KNOX *+        CLOUDY    59  52  77 S9        30.07R
LA PORTE +     DRIZZLE   62  60  93 S6        30.07R
MICHIGAN CITY+ CLOUDY    63  54  72 W6        30.08R
MONTICELLO +   RAIN      58  57  99 S9        30.11S
VALPARAISO     CLOUDY    62  58  86 S8        30.07R

$$

LMZ046-743>745-041500-
SOUTHERN LAKE MICHIGAN

STATION/POSITION TIME  TEMP    WIND        PRES    WAVE
                       AIR SEA DIR/SP/G            HT
                 (UTC) (F)     (DEG/KT/KT) (MB)    (FT)
BURNS HARBOR     1400   56     290/ 10/ 12 1018.6R
MICHIGAN CITY    1400   60     240/ 15/ 16   N/A
5NW MICH CITY    1400   56 49  230/ 10/ 14   N/A     1

$$

INZ004-005-014>016-021>024-041500-
NORTH CENTRAL INDIANA

CITY           SKY/WX    TMP DP  RH WIND       PRES   REMARKS
ELKHART        CLOUDY    63  54  72 SW9G20    30.07R
GOSHEN         LGT RAIN  61  54  77 SW14      30.09R
LOGANSPORT +   RAIN      59  55  88 SW17      30.14R
PERU/GRISSOM   LGT RAIN  59  57  91 SW14      30.13R
ROCHESTER +    CLOUDY    61  61 100 W7        30.10S
SOUTH BEND     LGT RAIN  62  57  83 SW7G17    30.08R
WARSAW +       RAIN      57  55  94 SW13      30.10R

$$

INZ006>009-017-018-025>027-041500-
NORTHEAST INDIANA

CITY           SKY/WX    TMP DP  RH WIND       PRES   REMARKS
ANGOLA *+      CLOUDY    63  52  67 SW8       30.08R
AUBURN +       LGT RAIN  64  50  59 SW13G20   30.10R
FORT WAYNE     LGT RAIN  59  55  87 SW13      30.11R
HUNTINGTON +   CLOUDY    60  54  79 SW6       30.12R

$$

INZ028-029-035-036-043>045-051>053-041500-
WEST CENTRAL INDIANA

CITY           SKY/WX    TMP DP  RH WIND       PRES   REMARKS
CRAWFORDSVL +  RAIN      57  50  76 SW5       30.16R
GREENCASTLE +  HVY RAIN  64  46  52 W8        30.16R
LAFAYETTE      LGT RAIN  58  56  93 CALM      30.12S FOG
TERRE HAUTE    HVY RAIN  63  53  70 SW8       30.16R

$$

INZ030>032-037>040-046>048-054>057-064-065-041500-
CENTRAL INDIANA

CITY           SKY/WX    TMP DP  RH WIND       PRES   REMARKS
ANDERSON       PTSUNNY   66  45  45 W12       30.16R
CP ATTERBURY + PTSUNNY   68  50  52 SW8G16    30.15S
COLUMBUS       PTSUNNY   66  50  55 S12       30.16R
FRANKFORT +    HVY RAIN  61  54  77 SW7       30.16R
GREENWOOD *+   PTSUNNY   68  48  49 SW8       30.15R
INDIANAPOLIS   CLOUDY    67  51  56 SW10      30.12R
-EAGLE CREEK   CLOUDY    66  50  56 NW12      30.15R
MARION +       CLOUDY    62  50  66 SW10      30.15R HAZE
MT COMFORT *+  PTSUNNY   70  39  32 SW14      30.14R
SHELBYVILLE    FAIR      70  52  52 SW12      30.14R
ZIONSVILLE +   CLOUDY    65  49  56 W9        30.16R

$$

INZ033-034-041-042-049-050-058-059-041500-
EAST CENTRAL INDIANA

CITY           SKY/WX    TMP DP  RH WIND       PRES   REMARKS
MUNCIE         PTSUNNY   70  50  49 W18       30.14R

$$

INZ060-061-067>069-081>083-085>088-041500-
SOUTHWEST INDIANA

CITY           SKY/WX    TMP DP  RH WIND       PRES   REMARKS
EVANSVILLE     CLOUDY    67  53  61 SW10      30.17R
HUNTINGBURG *+ CLOUDY    64  52  63 SW9       30.18R
WASHINGTON +   CLOUDY    68  47  47 SW13G18   30.15R

$$

INZ062-063-066-070>080-084-089>092-041500-
SOUTH CENTRAL AND SOUTHEAST INDIANA

CITY           SKY/WX    TMP DP  RH WIND       PRES   REMARKS
BEDFORD +      CLOUDY    66  52  59 S3        30.17R
BLOOMINGTON    CLOUDY    69  50  50 SW8       30.15R
MADISON *+     MOSUNNY   70  48  46 SW8G16    30.21R
NORTH VERNON + MOSUNNY   68  52  56 SW10G16   30.18R
SEYMOUR +      PTSUNNY   72  52  49 SW7       30.17R

$$



USA.gov is the U.S. government's official web portal to all federal, state and local government web resources and services.